Location: ??
(35.3149°N, 139.6204°E)
Time: 11:09:27
(UTC+00:00)

FENGYUN 3A - Pass Details

Date: 03 August 2024
Orbit: 822 x 834 km, 98.6° (Epoch: 09 September)

Event Time Altitude Azimuth Distance (km) Brightness Sun altitude
Rises 17:13:00 0° 9° (N) 3,388 7.7 -27.2°
Reaches altitude 10° 17:15:23 10° 6° (N) 2,450 6.8 -26.9°
Maximum altitude 17:20:45 64° 286° (WNW) 920 3.7 -26.1°
Enters shadow 17:20:49 64° 282° (WNW) 920 3.7 -26.1°
